Cloud_Cover
99 56 100 85 49 100 100 81 73 19 59 66 75 96 31 68 19 30 100 99 100 51 42 49 36 98 34 18 40 5 63 12 99 5 81 100 100 5 10 5 5 3 2 16 13 82 8 0 0
100 5 7 79 93 92 98 85 91 92 92 27 48 83 100 10 100 96 44 94 78 70 98 54 59 72 81 77 5 5 11 100 83 16 27 100 30 8 10 41 5 5 6 50 8 10 0 2 7
13 84 0 34 100 92 52 57 90 73 54 5 8 64 66 6 9 72 61 9 39 69 58 33 5 5 26 39 19 72 96 81 81 78 5 3 4 5 91 83 11 5 4 2 21 1 0 0 0
6 2 1 100 86 23 10 22 5 6 45 6 5 5 5 7 54 5 70 51 89 100 100 100 100 83 98 69 97 54 96 100 41 7 51 50 5 84 100 33 0 0 0 0 0 0 0 0 0
5 3 83 59 52 8 5 2 6 50 11 5 6 5 7 6 78 50 62 97 96 93 25 46 92 93 100 92 97 95 98 34 11 9 75 100 98 95 2 0 0 0 0 0 0 0 0 0 0
2 5 100 62 18 8 8 5 5 5 3 5 9 55 68 62 30 46 85 75 72 58 52 51 89 100 100 99 77 100 96 8 5 53 100 99 13 0 0 0 0 0 0 0 0 0 0 0 0
0 58 61 76 9 43 5 5 5 2 5 17 24 6 42 88 86 25 25 100 68 93 50 20 83 100 98 100 88 100 9 82 100 91 8 4 0 0 0 0 0 0 0 0 0 0 0 0 0
4 11 8 38 43 1 1 0 2 4 8 5 23 5 12 11 63 62 5 5 5 25 42 38 69 95 100 100 84 100 100 100 2 0 0 0 0 0 0 0 0 0 0 0 0 0 0 0 0
5 44 2 1 8 86 20 58 37 4 4 5 6 24 4 4 6 7 0 1 5 34 15 55 76 100 86 28 89 100 20 0 0 2 0 0 3 0 0 0 0 0 0 0 0 0 0 0 1
56 22 5 1 1 7 41 93 87 80 98 100 8 56 32 4 27 37 28 15 5 5 20 58 74 100 24 49 38 4 0 0 3 2 0 0 0 0 0 0 0 0 0 0 0 0 0 0 5
2 62 44 5 5 5 5 4 7 66 100 100 100 100 99 88 1 0 0 21 21 5 40 100 69 93 26 4 0 0 2 0 0 0 2 0 0 0 0 0 0 0 0 0 0 0 0 0 2
75 25 53 0 6 92 45 1 5 31 46 90 99 100 52 38 74 55 23 59 45 17 9 100 82 21 5 0 0 0 0 0 34 0 0 0 1 0 0 0 0 0 0 0 0 0 0 0 0
95 19 3 3 5 5 39 76 19 60 87 6 40 71 11 7 22 54 41 49 100 46 13 52 65 20 5 0 0 0 0 5 1 0 0 0 7 0 0 0 0 0 0 0 0 0 0 0 0
98 100 60 4 5 3 4 0 1 30 14 99 3 1 4 1 1 2 38 30 94 70 23 82 51 5 0 0 0 0 0 4 0 0 0 0 0 0 0 0 0 0 0 0 0 0 0 0 0
55 9 5 5 38 35 2 5 5 2 0 5 5 10 1 5 4 2 1 6 49 64 47 36 5 5 0 0 0 0 0 0 0 0 0 0 0 0 0 0 0 0 0 0 0 0 0 0 0
26 62 84 5 75 8 29 21 5 5 2 5 5 0 0 0 5 5 3 10 5 37 15 11 4 0 0 0 0 0 0 0 0 0 0 0 0 0 0 0 0 0 0 0 0 0 0 0 0
83 77 62 24 5 35 100 100 8 5 66 5 4 5 1 2 5 5 5 3 2 6 18 5 2 0 0 0 0 0 0 0 0 0 0 0 0 0 0 0 0 0 0 0 0 0 0 2 1
100 100 100 100 98 96 94 95 96 16 5 5 3 27 7 3 1 42 28 4 8 3 28 60 6 2 0 0 0 0 0 0 1 5 0 0 0 0 0 0 0 0 0 0 0 0 5 5 5
100 100 100 100 100 100 100 100 100 57 10 5 5 24 26 17 20 31 99 57 5 5 1 5 99 13 5 0 0 0 4 6 12 30 21 0 0 0 0 0 1 1 5 5 3 3 11 6 0
5 52 94 100 100 100 100 100 100 100 100 17 83 87 73 48 62 41 12 46 5 34 18 1 6 71 57 11 1 4 19 46 49 62 31 1 0 0 1 0 0 2 8 7 69 70 2 4 3
5 5 28 80 7 50 85 73 65 96 100 100 100 100 100 96 77 17 48 65 53 5 37 100 9 4 23 96 14 0 2 1 6 19 11 27 1 0 0 0 0 0 5 5 5 7 10 5 4
81 5 5 4 5 91 53 100 7 49 38 41 98 100 100 100 100 99 80 70 71 96 99 17 55 75 34 4 16 5 11 9 100 53 60 20 0 0 0 0 0 0 0 0 5 44 5 5 5
3 14 5 5 39 57 11 39 10 79 82 74 36 13 92 100 100 80 90 29 54 5 5 5 2 2 28 97 71 18 73 84 96 72 8 0 0 0 0 0 0 0 0 2 0 1 5 5 5
18 26 42 0 3 25 56 7 63 5 26 76 16 5 71 77 29 31 15 5 25 88 45 4 21 33 19 70 99 78 100 9 40 44 58 42 98 42 8 0 0 0 0 0 0 0 0 0 4
1 0 3 1 0 1 0 0 2 0 58 7 5 35 5 5 5 12 58 14 5 28 100 100 33 76 100 100 99 57 40 100 67 6 4 12 68 98 88 46 22 4 14 1 0 0 0 0 0
63 5 5 25 5 4 0 0 0 0 23 31 5 53 16 5 5 0 9 22 13 20 79 18 100 88 99 94 84 100 68 65 100 98 88 20 5 6 44 86 81 73 57 21 7 0 0 0 0
17 0 1 0 2 1 2 3 5 5 1 27 12 4 15 43 99 100 100 93 58 99 93 41 88 86 84 100 100 100 100 99 65 90 100 100 99 63 40 58 38 82 92 100 94 17 2 2 1
9 2 0 0 0 0 0 0 4 0 1 92 100 100 100 100 100 100 100 79 50 49 69 22 100 32 97 100 100 100 100 100 93 100 100 100 100 39 16 16 97 96 41 56 100 100 41 17 5
0 0 0 0 0 0 0 17 0 0 2 98 100 100 100 100 100 98 85 24 5 21 98 99 96 85 100 100 100 100 89 99 55 100 100 100 100 91 27 36 60 18 63 89 12 100 52 20 16
0 0 0 0 0 0 0 0 0 0 74 68 100 100 100 100 100 100 96 86 88 100 100 98 85 92 99 96 100 100 100 100 100 100 100 100 96 98 100 100 99 9 5 1 3 39 100 100 100